COSMOGIRLSAT

Last updated on Thu Nov 21 2024 00:02:09 GMT+0000 (Coordinated Universal Time)

1 60953U 98067WT 24325.18188591 .00461881 00000+0 18451-2 0 9998 2 60953 51.6230 254.3751 0009192 166.3285 193.7969 15.84750894 12953
UTC large
Height (km)
Speed (km/s)
/
Latitude / Longitude
Inclination (degrees)
Orbital Period (minutes)
Azimuth
Elevation
Range (km)
Doppler Factor

Next 0 passes for location: London (51.5072 / 0.1276)

Sorry there are no passes over London.